SSEC Globe Logo

Space Science and Engineering Center

Wisconsin State Observations

ASUS43 KMKX 201121                                              2018293 1121
RWRWI
WISCONSIN REGIONAL WEATHER ROUNDUP
NATIONAL WEATHER SERVICE MILWAUKEE/SULLIVAN WI
NOTE: "FAIR" INDICATES FEW OR NO CLOUDS BELOW 12,000 FEET WITH NO
SIGNIFICANT WEATHER AND/OR OBSTRUCTIONS TO VISIBILITY.

CITY           SKY/WX    TMP DP  RH WIND       PRES   REMARKS
SUPERIOR ARPT  CLOUDY    33  23  66 NW17G31   29.91R WCI  22
ASHLAND        MOCLDY    34  28  79 NW9       29.84R WCI  27
HAYWARD        FAIR      34  29  82 VRB7      29.86R WCI  28
SIREN          CLOUDY    36  24  63 N21G29    29.92R WCI  25
CUMBERLAND     CLOUDY    34  28  80 NW14G26   29.88R WCI  24
RICE LAKE      CLOUDY    36  29  77 NW12G26   29.89R WCI  27
CHETEK         CLOUDY    37  31  78 NW10G23   29.87R WCI  30
LADYSMITH      FAIR      35  28  74 NW18G30   29.85R WCI  24
EAU CLAIRE     LGT RAIN  38  32  79 N21G40    29.85R WCI  28
MENOMONIE      MOCLDY    38  19  45 NW26G32   29.88R WCI  27
NEW RICHMOND   MOCLDY    39  21  48 NW23G29   29.92R WCI  28
OSCEOLA        CLOUDY    39  23  52 NW17G31   29.96R WCI  30


CITY           SKY/WX    TMP DP  RH WIND       PRES   REMARKS
MANITOWISH WTR LGT SNOW  32  32 100 NW10      29.73R WCI  24
ARBOR VITAE    LGT SNOW  34  33  94 N16G26    29.72R WCI  24
WOODRUFF       LGT SNOW  34  33  94 N16G26    29.72R WCI  24
RHINELANDER    LGT RAIN  38  33  82 NW10      29.69S WCI  31
EAGLE RIVER    LGT SNOW  32  32  99 N10G20    29.69R WCI  24
LAND O LAKES   SNOW      32  32  97 N8        29.72R VSB 1/2 WCI  25
PHILLIPS       LGT SNOW  32  31  96 NW12G22   29.78R WCI  23
TOMAHAWK       RAIN      37  32  83 W22G28    29.73R WCI  26
MEDFORD        MOCLDY    37  29  73 NW23G35   29.76R WCI  26
MERRILL        CLOUDY    37  35  90 W15G21    29.73S WCI  28


CITY           SKY/WX    TMP DP  RH WIND       PRES   REMARKS
WAUSAU         CLOUDY    39  34  82 W10       29.73S WCI  32
MOSINEE        CLOUDY    37  34  87 W9        29.75S WCI  31
MARSHFIELD     CLOUDY    41  34  76 NW15      29.75S
STEVENS POINT  MOCLDY    39  32  75 W9        29.75S WCI  33
WAUPACA        FAIR      44  34  68 W14       29.74S
WAUTOMA        FAIR      41  33  73 W12G17    29.77F
WISC RAPIDS    FAIR      42  30  62 W12       29.78S
CAMP DOUGLAS   FAIR      44  34  69 W14G23    29.80S


CITY           SKY/WX    TMP DP  RH WIND       PRES   REMARKS
ANTIGO         CLOUDY    36  35  95 W10G20    29.69F WCI  28
SHAWANO        LGT RAIN  42  33  70 W6        29.71F
OCONTO         CLOUDY    34  31  88 CALM      29.71S
STURGEON BAY   CLOUDY    44  32  62 W7        29.70F
GREEN BAY      MOCLDY    39  32  76 S7        29.72F WCI  34
MANITOWOC      FAIR      41  32  70 W7        29.73F
APPLETON       PTCLDY    39  30  70 SW10      29.72F WCI  32
CLINTONVILLE   CLOUDY    40  33  76 W5        29.73R
OSHKOSH        FAIR      42  34  73 SW6       29.74F


CITY           SKY/WX    TMP DP  RH WIND       PRES   REMARKS
LA CROSSE      MOCLDY    47  32  56 W20G30    29.85S
SPARTA         FAIR      41  35  78 W8        29.84S
VIROQUA        CLOUDY    41  35  80 W10G16    29.84F
BOSCOBEL       FAIR      46  35  65 W10G18    29.89S
PRAIRIE DU CHI FAIR      45  32  60 W15G22    29.91S
PLATTEVILLE    FAIR      43  36  76 W14       29.90S

CITY           SKY/WX    TMP DP  RH WIND       PRES   REMARKS
REEDSBURG      FAIR      43  34  69 W10       29.81F
BARABOO/DELLS  FAIR      42  33  68 W8        29.81S
LONE ROCK      FAIR      44  36  73 W12       29.86S
MINERAL POINT  FAIR      43  37  81 W9        29.86F
MADISON        FAIR      43  34  70 W5        29.82F
MIDDLETON      FAIR      44  35  70 W10       29.83F
WATERTOWN      FAIR      42  35  78 W6        29.79F
MONROE         FAIR      42  34  73 W15       29.86S
JANESVILLE     CLEAR     45  36  70 W9        29.85S


CITY           SKY/WX    TMP DP  RH WIND       PRES   REMARKS
MILWAUKEE      FAIR      47  35  63 W8        29.80F
WAUKESHA       CLEAR     41  34  75 W9        29.81F
MILWAUKEE/TIMM FAIR      43  32  65 W9        29.80F
RACINE         FAIR      44  35  70 W6        29.82F
BURLINGTON     FAIR      42  34  74 SW5       29.82S
KENOSHA        FAIR      43  37  79 W12       29.82F
FOND DU LAC    FAIR      41  34  76 SW6       29.76F
SHEBOYGAN      FAIR      40  33  76 W8        29.75F WCI  34
WEST BEND      FAIR      41  34  75 W7        29.78S
JUNEAU         FAIR      38  33  84 SW6       29.79F WCI  33
LSZ147-162-201200-
LAKE SUPERIOR

STATION/POSITION TIME  TEMP    WIND        PRES    WAVE
                       AIR SEA DIR/SP/G            HT/PER
                 (UTC) (F)     (DEG/KT/KT) (MB)    (FT/S)
W MID LAKE BUOY  1050   38 44  320/ 25/ 31 1006.9R   4/ 5
DEVILS ISLAND    1100   37     330/ 29/ 34 1010.3R
SAXON HARBOR     1040   41     300/ 23/ 29 1008.5R

LMZ867-665-643>646-201200-
LAKE MICHIGAN

STATION/POSITION TIME  TEMP    WIND        PRES    WAVE
                       AIR SEA DIR/SP/G            HT/PER
                 (UTC) (F)     (DEG/KT/KT) (MB)    (FT/S)
S GREEN BAY BUOY 1100   53 51  260/ 12/ 14 1006.1
N MID LAKE BUOY  1100   46 52  310/ 14/ 17 1004.3
NORTHPORT PIER   1040   45     290/  2/  5 1005.1F
KEWAUNEE LAKESHO 1100   41     280/  4/  6 1005.2
SHEBOYGAN LAKESH 1100   44     260/  9/ 12 1007.4F
PORT WASHINGTON  1030   47     270/  7/ 11 1009.5F
ATWATER BUOY     1037   48 53  260/ 14/ 16 1008.8F   1
MILWAUKEE LAKESH 1100   47     270/ 10/ 12   N/A
S MID LAKE BUOY  1050   53 56  290/ 19/ 23 1008.7R   5/ 5
KENOSHA   LAKESH 1100   47     260/ 10/ 15 1009.8
TC  - TEMPERATURE IN CELSIUS
VSB - VISIBILITY IN STATUTE MILES
WCI - WIND CHILL INDEX
HX  - HEAT INDEX